Goteborg, Sweden

12:38 AM CEST on June 22, 2018 (GMT +0200)
Landvetter

Weather History for ESGG - September, 2017

Change the Weather History Date:

Wednesday, September 13, 2017

  Actual Average Record
Temperature  
Mean Temperature 52 °F -  
Max Temperature 55 °F - - ()
Min Temperature 48 °F - - ()
Degree Days  
Heating Degree Days 14    
Growing Degree Days 2 (Base 50)    
Moisture  
Dew Point 50 °F    
Average Humidity 92    
Maximum Humidity 100    
Minimum Humidity 81    
Precipitation  
Precipitation 0.00 in - - ()
Sea Level Pressure  
Sea Level Pressure 29.24 in    
Wind  
Wind Speed 9 mph ()    
Max Wind Speed 16 mph    
Max Gust Speed -    
Visibility 7.3 miles    
Events Rain    
T = Trace of Precipitation, MM = Missing Value Source: Averaged Metar Reports

Daily Weather History Graph

Daily Weather History Graph

Search for Another Location

Airport or City:

Astronomy

Sep. 13, 2017 Rise Set
Actual Time 6:36 AM CEST 7:35 PM CEST
Civil Twilight 5:57 AM CEST 8:14 PM CEST
Nautical Twilight 5:08 AM CEST 9:02 PM CEST
Astronomical Twilight 4:14 AM CEST 9:56 PM CEST
Moon 11:24 PM CEST (9/13) 3:26 PM CEST (9/13)
Length of Visible Light 14h 17m
Length of Day
12h 58m
Waning Gibbous, 48% of the Moon is Illuminated
Sep 13
Waning Gibbous
Sep 20
New
Sep 28
First Quarter
Oct 5
Full
Oct 12
Last Quarter

Hourly Weather History & Observations

Time (CEST) Temp. Dew Point Humidity Pressure Visibility Wind Dir Wind Speed Gust Speed Precip Events Conditions
12:00 AM 53 °F 51 °F 91% 29.45 in 10 mi SSW 8.9 mph - - Rain Light Rain
12:20 AM 51.8 °F 50.0 °F 94% 29.44 in 6.2 mi SSW 8.1 mph - N/A Rain Light Rain Showers
12:50 AM 53.6 °F 51.8 °F 94% 29.44 in 6.2 mi SSW 10.4 mph - N/A   Overcast
1:00 AM 53 °F 51 °F 91% 29.45 in 22 mi SSW 11.2 mph - -   Partly Cloudy
1:20 AM 53.6 °F 51.8 °F 94% 29.44 in 6.2 mi SSW 10.4 mph - N/A Rain Light Rain Showers
1:50 AM 53.6 °F 51.8 °F 94% 29.44 in 6.2 mi SSW 11.5 mph - N/A Rain Light Rain Showers
2:00 AM 53 °F 52 °F 94% 29.45 in 16 mi SW 13.4 mph - - Rain Light Rain Showers
2:20 AM 53.6 °F 51.8 °F 94% 29.44 in 6.2 mi SW 11.5 mph - N/A Rain Light Rain Showers
2:50 AM 53.6 °F 51.8 °F 94% 29.42 in 6.2 mi SW 11.5 mph - N/A Rain Light Rain Showers
3:00 AM 53 °F 51 °F 92% 29.44 in 19 mi SW 8.9 mph - - Rain Rain
3:20 AM 53.6 °F 51.8 °F 94% 29.42 in 6.2 mi SW 10.4 mph - N/A   Mostly Cloudy
3:50 AM 53.6 °F 51.8 °F 94% 29.42 in 6.2 mi SSW 10.4 mph - N/A Rain Rain Showers
4:00 AM 53 °F 51 °F 92% 29.44 in 17 mi SSW 8.9 mph - - Rain Drizzle
4:20 AM 53.6 °F 51.8 °F 94% 29.42 in 6.2 mi SW 10.4 mph - N/A Rain Rain Showers
4:50 AM 51.8 °F 50.0 °F 94% 29.42 in 6.2 mi SSW 10.4 mph - N/A   Mostly Cloudy
5:00 AM 52 °F 50 °F 92% 29.43 in 22 mi SSW 8.9 mph - - Rain Light Rain Showers
5:20 AM 51.8 °F 50.0 °F 94% 29.42 in 6.2 mi SSW 9.2 mph - N/A   Scattered Clouds
5:50 AM 51.8 °F 50.0 °F 94% 29.42 in 6.2 mi South 10.4 mph - N/A Rain Rain Showers
6:20 AM 51.8 °F 50.0 °F 94% 29.39 in 6.2 mi South 10.4 mph - N/A   Scattered Clouds
6:50 AM 51.8 °F 50.0 °F 94% 29.39 in 6.2 mi South 10.4 mph - N/A   Scattered Clouds
7:20 AM 51.8 °F 51.8 °F 100% 29.39 in 6.2 mi South 9.2 mph - N/A   Scattered Clouds
8:20 AM 51.8 °F 51.8 °F 100% 29.36 in 6.2 mi South 8.1 mph - N/A   Mostly Cloudy
8:50 AM 51.8 °F 51.8 °F 100% 29.36 in 6.2 mi SSE 6.9 mph - N/A   Mostly Cloudy
9:00 AM 53 °F 51 °F 92% 29.36 in 16 mi SE 6.7 mph - -   Scattered Clouds
9:20 AM 53.6 °F 51.8 °F 94% 29.33 in 6.2 mi SSE 6.9 mph - N/A Rain Rain Showers
9:50 AM 51.8 °F 51.8 °F 100% 29.33 in 4.3 mi SSE 8.1 mph - N/A Rain Rain
10:20 AM 51.8 °F 50.0 °F 94% 29.33 in 6.2 mi South 8.1 mph - N/A Rain Rain Showers
10:50 AM 51.8 °F 51.8 °F 100% 29.30 in 6.2 mi SE 8.1 mph - N/A   Scattered Clouds
11:00 AM 53 °F 51 °F 92% 29.31 in 22 mi SE 8.9 mph - - Rain Rain
11:20 AM 53.6 °F 51.8 °F 94% 29.30 in 6.2 mi SE 8.1 mph - N/A   Mostly Cloudy
11:50 AM 53.6 °F 51.8 °F 94% 29.27 in 6.2 mi SSE 10.4 mph - N/A   Mostly Cloudy
12:00 PM 54 °F 51 °F 86% 29.29 in 25 mi SSE 13.4 mph - -   Partly Cloudy
12:20 PM 53.6 °F 51.8 °F 94% 29.27 in 6.2 mi SSE 10.4 mph - N/A   Mostly Cloudy
1:00 PM 54 °F 51 °F 84% 29.25 in 28 mi SE 11.2 mph - -   Mostly Cloudy
1:20 PM 55.4 °F 50.0 °F 82% 29.24 in 6.2 mi SE 10.4 mph - N/A   Mostly Cloudy
1:50 PM 55.4 °F 50.0 °F 82% 29.21 in 6.2 mi SE 10.4 mph - N/A   Overcast
2:00 PM 51 °F 47 °F 81% 29.23 in 6 mi SSE 15.7 mph - - Rain Heavy Rain
2:20 PM 50.0 °F 46.4 °F 87% 29.21 in 2.8 mi SSE 13.8 mph - N/A Rain Light Rain
2:50 PM 50.0 °F 46.4 °F 87% 29.18 in 6.2 mi SSE 11.5 mph - N/A   Mostly Cloudy
3:00 PM 51 °F 48 °F 86% 29.19 in 31 mi SE 8.9 mph - - Rain Rain
3:20 PM 53.6 °F 50.0 °F 88% 29.18 in 6.2 mi SSE 10.4 mph - N/A   Mostly Cloudy
3:50 PM 51.8 °F 50.0 °F 94% 29.15 in 6.2 mi ESE 10.4 mph - N/A   Scattered Clouds
4:00 PM 53 °F 49 °F 83% 29.15 in 28 mi ESE 13.4 mph - -   Scattered Clouds
4:20 PM 51.8 °F 48.2 °F 88% 29.12 in 6.2 mi ESE 12.7 mph - N/A   Scattered Clouds
4:50 PM 51.8 °F 48.2 °F 88% 29.12 in 6.2 mi East 9.2 mph - N/A   Scattered Clouds
5:00 PM 51 °F 47 °F 82% 29.12 in 12 mi ESE 11.2 mph - - Rain Light Drizzle
5:20 PM 50.0 °F 48.2 °F 94% 29.09 in 6.2 mi East 10.4 mph - N/A Rain Light Rain
5:50 PM 50.0 °F 48.2 °F 94% 29.09 in 6.2 mi East 9.2 mph - N/A   Light Drizzle
6:00 PM 50 °F 48 °F 89% 29.09 in 16 mi East 11.2 mph - - Rain Light Rain Showers
6:20 PM 50.0 °F 48.2 °F 94% 29.06 in 6.2 mi East 11.5 mph - N/A   Scattered Clouds
6:50 PM 50.0 °F 48.2 °F 94% 29.06 in 6.2 mi East 13.8 mph - N/A   Light Drizzle
7:00 PM 49 °F 47 °F 92% 29.06 in 12 mi ENE 13.4 mph - - Rain Light Rain Showers
7:20 PM 50.0 °F 48.2 °F 94% 29.03 in 6.2 mi ENE 12.7 mph - N/A Rain Rain Showers
7:50 PM 50.0 °F 46.4 °F 87% 29.03 in 6.2 mi ENE 10.4 mph - N/A   Overcast
8:20 PM 50.0 °F 48.2 °F 94% 29.03 in 6.2 mi ENE 11.5 mph - N/A   Mostly Cloudy
8:50 PM 50.0 °F 48.2 °F 94% 29.00 in 6.2 mi ENE 11.5 mph - N/A   Mostly Cloudy
9:00 PM 49 °F 47 °F 91% 29.03 in 31 mi NE 11.2 mph - -   Partly Cloudy
9:20 PM 50.0 °F 48.2 °F 94% 29.00 in 6.2 mi NE 8.1 mph - N/A   Mostly Cloudy
9:50 PM 48.2 °F 48.2 °F 100% 29.00 in 6.2 mi NE 9.2 mph - N/A   Overcast
10:00 PM 49 °F 47 °F 92% 29.03 in 31 mi NE 11.2 mph - -   Mostly Cloudy
10:20 PM 50.0 °F 46.4 °F 87% 29.00 in 6.2 mi NE 10.4 mph - N/A   Mostly Cloudy
10:50 PM 48.2 °F 46.4 °F 93% 29.00 in 6.2 mi NE 11.5 mph - N/A   Overcast
11:00 PM 49 °F 47 °F 91% 29.03 in 6 mi NE 8.9 mph - -   Overcast
11:20 PM 48.2 °F 46.4 °F 93% 29.00 in 5.0 mi NNE 10.4 mph - N/A Rain Rain
11:50 PM 48.2 °F 48.2 °F 100% 29.03 in 6.2 mi NNE 10.4 mph - N/A   Overcast